THURAYA-2

Last updated on Wed Sep 17 2025 00:02:46 GMT+0000 (Coordinated Universal Time)

1 27825U 03026A 25259.56641766 .00000110 00000+0 00000+0 0 9999 2 27825 8.4058 33.0073 0000505 27.8541 182.8331 1.00273899 81604
UTC large
Height (km)
Speed (km/s)
/
Latitude / Longitude
Inclination (degrees)
Orbital Period (minutes)
Azimuth
Elevation
Range (km)
Doppler Factor

Next 0 passes for location: London (51.5072 / 0.1276)

Sorry there are no passes over London.